Location: Borovka
(49.7741°N, 14.5280°E)
Time: 18:01:55
(UTC+00:00)

SJ 16-02 - Pass Details

Date: 17 November 2025
Orbit: 585 x 594 km, 75.0° (Epoch: 10 December)

Event Time Altitude Azimuth Distance (km) Brightness Sun altitude
Rises 18:09:37 0° 218° (SW) 2,826 5.2 -27.8°
Reaches altitude 10° 18:11:55 10° 224° (SW) 1,928 4.4 -28.1°
Enters shadow 18:15:37 43° 280° (W) 840 2.4 -28.7°
